Time,TemperatureF,DewpointF,PressureIn,WindDirection,WindDirectionDegrees,WindSpeedMPH,WindSpeedGustMPH,Humidity,HourlyPrecipIn,Conditions,Clouds,dailyrainin,SoftwareType,DateUTC
2015-03-27 00:23:00,37.0,37.0,29.65,NE,43,1.0,2.0,100,0.00,,,0.00,,2015-03-27 04:23:00,
2015-03-27 00:53:00,37.0,37.0,29.68,NNW,338,1.0,1.0,100,0.00,,,0.00,,2015-03-27 04:53:00,
2015-03-27 01:23:00,36.0,36.0,29.62,North,350,1.0,2.0,100,0.00,,,0.00,,2015-03-27 05:23:00,
2015-03-27 01:52:00,36.0,36.0,29.62,NNW,338,0.0,1.0,100,0.00,,,0.00,,2015-03-27 05:52:00,
2015-03-27 02:22:00,36.0,36.0,29.65,WNW,292,1.0,1.0,100,0.00,,,0.00,,2015-03-27 06:22:00,
2015-03-27 02:52:00,35.0,35.0,29.65,WNW,292,0.0,2.0,100,0.00,,,0.00,,2015-03-27 06:52:00,
2015-03-27 03:12:00,35.0,35.0,29.65,NNW,338,0.0,0.0,100,0.00,,,0.00,,2015-03-27 07:12:00,
2015-03-27 03:21:00,36.0,36.0,29.62,West,270,0.0,0.0,100,0.00,,,0.00,,2015-03-27 07:21:00,
2015-03-27 03:52:00,35.0,35.0,29.65,West,270,0.0,2.0,100,0.00,,,0.00,,2015-03-27 07:52:00,
2015-03-27 04:21:00,35.0,35.0,29.65,WNW,292,1.0,1.0,100,0.00,,,0.00,,2015-03-27 08:21:00,
2015-03-27 04:52:00,35.0,35.0,29.65,West,270,0.0,0.0,100,0.00,,,0.00,,2015-03-27 08:52:00,
2015-03-27 05:21:00,35.0,35.0,29.68,West,270,0.0,1.0,100,0.00,,,0.00,,2015-03-27 09:21:00,
2015-03-27 05:52:00,35.0,35.0,29.68,WNW,292,0.0,0.0,100,0.00,,,0.00,,2015-03-27 09:52:00,
2015-03-27 06:22:00,34.0,34.0,29.68,WNW,292,0.0,0.0,100,0.00,,,0.00,,2015-03-27 10:22:00,
2015-03-27 06:52:00,34.0,34.0,29.68,WNW,292,0.0,2.0,100,0.00,,,0.00,,2015-03-27 10:52:00,
2015-03-27 07:22:00,35.0,35.0,29.71,WNW,292,0.0,2.0,100,0.00,,,0.00,,2015-03-27 11:22:00,
2015-03-27 07:52:00,35.0,35.0,29.71,WNW,292,0.0,0.0,100,0.00,,,0.00,,2015-03-27 11:52:00,
2015-03-27 08:22:00,35.0,35.0,29.74,NW,323,1.0,1.0,100,0.00,,,0.00,,2015-03-27 12:22:00,
2015-03-27 08:52:00,37.0,37.0,29.74,NW,315,1.0,2.0,100,0.00,,,0.00,,2015-03-27 12:52:00,
2015-03-27 09:21:00,38.0,38.0,29.71,WSW,248,0.0,0.0,100,0.00,,,0.00,,2015-03-27 13:21:00,
2015-03-27 09:52:00,39.0,39.0,29.71,NW,315,0.0,0.0,100,0.00,,,0.00,,2015-03-27 13:52:00,